Wetterdaten: Woche 22.02.16 - 28.02.16 (KW8)
Datum Zeit Temp. I. Temp. A. Feuchte I. Feuchte A. Luftdruck Regen Wind Richtung Sonnenschein UV Solar Taupunkt Windchill Windben
22.02.2016 00:00 22,7 C 9,0 C 49 % 89 % 1011,5 hPa 0,0 l/m 17,8 km/h (3 Bft) W-SW 0,00 h 0,0 UV-I 0 W/m 7,3 C 3,0 C 28,6 km/h (4 Bft)
22.02.2016 01:00 22,6 C 9,0 C 49 % 84 % 1011,1 hPa 0,0 l/m 20,3 km/h (4 Bft) W-SW 0,00 h 0,0 UV-I 0 W/m 6,5 C 2,1 C 32,2 km/h (5 Bft)
22.02.2016 02:00 22,5 C 8,8 C 49 % 82 % 1010,4 hPa 0,0 l/m 16,3 km/h (3 Bft) W 0,00 h 0,0 UV-I 0 W/m 5,9 C 3,6 C 26,0 km/h (4 Bft)
22.02.2016 03:00 22,5 C 8,5 C 49 % 82 % 1009,6 hPa 0,0 l/m 13,6 km/h (3 Bft) W-SW 0,00 h 0,0 UV-I 0 W/m 5,7 C 4,2 C 22,8 km/h (4 Bft)
22.02.2016 04:00 22,5 C 8,4 C 49 % 80 % 1009,3 hPa 0,0 l/m 18,8 km/h (3 Bft) W-SW 0,00 h 0,0 UV-I 0 W/m 5,1 C 1,9 C 29,3 km/h (5 Bft)
22.02.2016 05:00 22,4 C 8,5 C 49 % 79 % 1009,1 hPa 0,0 l/m 17,5 km/h (3 Bft) W-SW 0,00 h 0,0 UV-I 0 W/m 5,1 C 2,5 C 28,5 km/h (4 Bft)
22.02.2016 06:00 22,4 C 8,7 C 50 % 78 % 1009,4 hPa 0,0 l/m 18,8 km/h (3 Bft) W-SW 0,00 h 0,0 UV-I 0 W/m 5,0 C 2,1 C 29,9 km/h (5 Bft)
22.02.2016 07:00 22,4 C 8,6 C 50 % 79 % 1009,2 hPa 0,0 l/m 18,1 km/h (3 Bft) W-SW 0,00 h 0,0 UV-I 11 W/m 5,1 C 2,4 C 29,3 km/h (5 Bft)
22.02.2016 08:00 22,5 C 8,5 C 50 % 79 % 1009,3 hPa 0,0 l/m 14,3 km/h (3 Bft) W-SW 0,00 h 0,0 UV-I 23 W/m 5,0 C 3,8 C 22,8 km/h (4 Bft)
22.02.2016 09:00 22,8 C 8,6 C 51 % 78 % 1009,3 hPa 0,0 l/m 16,0 km/h (3 Bft) W-SW 0,00 h 0,5 UV-I 54 W/m 5,0 C 3,2 C 26,6 km/h (4 Bft)
22.02.2016 10:00 22,8 C 8,7 C 50 % 78 % 1009,3 hPa 0,0 l/m 17,9 km/h (3 Bft) W-SW 0,00 h 0,5 UV-I 66 W/m 5,2 C 2,6 C 29,0 km/h (5 Bft)
22.02.2016 11:00 22,8 C 8,9 C 48 % 79 % 1009,3 hPa 0,0 l/m 15,7 km/h (3 Bft) W-SW 0,00 h 0,5 UV-I 49 W/m 5,5 C 3,6 C 24,9 km/h (4 Bft)
22.02.2016 12:00 22,7 C 9,0 C 47 % 81 % 1008,9 hPa 0,0 l/m 17,3 km/h (3 Bft) W-SW 0,00 h 0,5 UV-I 54 W/m 6,0 C 3,2 C 27,0 km/h (4 Bft)
22.02.2016 13:00 22,7 C 9,3 C 48 % 80 % 1008,5 hPa 0,0 l/m 17,0 km/h (3 Bft) W-SW 0,00 h 0,7 UV-I 75 W/m 6,0 C 3,7 C 28,3 km/h (4 Bft)
22.02.2016 14:00 22,8 C 9,4 C 47 % 77 % 1008,1 hPa 0,0 l/m 19,5 km/h (3 Bft) W-SW 0,00 h 0,5 UV-I 57 W/m 5,6 C 2,9 C 29,2 km/h (5 Bft)
22.02.2016 15:00 22,9 C 9,5 C 46 % 77 % 1008,0 hPa 0,0 l/m 12,0 km/h (2 Bft) W-SW 0,00 h 0,5 UV-I 49 W/m 5,7 C 6,1 C 20,6 km/h (4 Bft)
22.02.2016 16:00 23,1 C 9,5 C 47 % 76 % 1007,8 hPa 0,0 l/m 20,7 km/h (4 Bft) W-SW 0,00 h 0,0 UV-I 43 W/m 5,5 C 2,7 C 33,0 km/h (5 Bft)
22.02.2016 17:00 23,2 C 9,2 C 50 % 76 % 1007,7 hPa 0,0 l/m 17,2 km/h (3 Bft) W-SW 0,00 h 0,0 UV-I 15 W/m 5,2 C 3,3 C 28,1 km/h (4 Bft)
22.02.2016 18:00 23,1 C 9,0 C 48 % 76 % 1007,7 hPa 0,0 l/m 15,6 km/h (3 Bft) W-SW 0,00 h 0,0 UV-I 0 W/m 5,0 C 3,8 C 24,6 km/h (4 Bft)
22.02.2016 19:00 23,3 C 8,8 C 48 % 77 % 1007,6 hPa 0,0 l/m 12,3 km/h (3 Bft) W-SW 0,00 h 0,0 UV-I 0 W/m 5,0 C 5,2 C 20,2 km/h (4 Bft)
22.02.2016 20:00 23,2 C 8,7 C 47 % 77 % 1007,4 hPa 0,0 l/m 15,9 km/h (3 Bft) W-SW 0,00 h 0,0 UV-I 0 W/m 5,0 C 3,4 C 25,6 km/h (4 Bft)
22.02.2016 21:00 23,2 C 8,6 C 47 % 79 % 1007,2 hPa 0,0 l/m 12,6 km/h (3 Bft) W-SW 0,00 h 0,0 UV-I 0 W/m 5,1 C 4,7 C 21,4 km/h (4 Bft)
22.02.2016 22:00 22,9 C 8,4 C 47 % 80 % 1007,3 hPa 0,0 l/m 13,1 km/h (3 Bft) W-SW 0,00 h 0,0 UV-I 0 W/m 5,1 C 4,3 C 17,9 km/h (3 Bft)
22.02.2016 23:00 22,7 C 8,2 C 47 % 81 % 1007,1 hPa 0,0 l/m 14,8 km/h (3 Bft) W-SW 0,00 h 0,0 UV-I 0 W/m 5,1 C 3,2 C 23,9 km/h (4 Bft)
23.02.2016 00:00 22,6 C 7,8 C 48 % 84 % 1006,7 hPa 0,0 l/m 13,5 km/h (3 Bft) W-SW 0,00 h 0,0 UV-I 0 W/m 5,3 C 3,4 C 22,2 km/h (4 Bft)
23.02.2016 01:00 22,5 C 7,6 C 48 % 86 % 1006,5 hPa 0,0 l/m 12,9 km/h (3 Bft) W-SW 0,00 h 0,0 UV-I 0 W/m 5,4 C 3,4 C 20,8 km/h (4 Bft)
23.02.2016 02:00 22,5 C 6,6 C 49 % 91 % 1006,8 hPa 1,4 l/m 9,5 km/h (2 Bft) W-SW 0,00 h 0,0 UV-I 0 W/m 5,2 C 4,1 C 16,2 km/h (3 Bft)
23.02.2016 03:00 22,4 C 3,5 C 49 % 91 % 1007,5 hPa 2,4 l/m 4,8 km/h (1 Bft) N 0,00 h 0,0 UV-I 0 W/m 2,2 C 3,0 C 7,8 km/h (2 Bft)
23.02.2016 04:00 22,4 C 1,7 C 49 % 92 % 1007,8 hPa 1,0 l/m 0,0 km/h (0 Bft) N 0,00 h 0,0 UV-I 0 W/m 0,5 C 1,7 C 0,0 km/h (0 Bft)
23.02.2016 05:00 22,4 C 1,1 C 48 % 93 % 1008,0 hPa 0,4 l/m 0,0 km/h (0 Bft) N 0,00 h 0,0 UV-I 0 W/m 0,0 C 1,1 C 0,0 km/h (0 Bft)
23.02.2016 06:00 22,4 C 0,8 C 48 % 94 % 1007,9 hPa 0,8 l/m 0,0 km/h (0 Bft) N 0,00 h 0,0 UV-I 0 W/m -0,1 C 0,8 C 0,0 km/h (0 Bft)
23.02.2016 07:00 22,3 C 0,9 C 49 % 95 % 1008,1 hPa 0,2 l/m 0,0 km/h (0 Bft) N 0,00 h 0,0 UV-I 10 W/m 0,1 C 0,9 C 0,0 km/h (0 Bft)
23.02.2016 08:00 22,5 C 1,0 C 49 % 95 % 1008,5 hPa 0,4 l/m 0,0 km/h (0 Bft) N 0,00 h 0,0 UV-I 23 W/m 0,3 C 1,0 C 0,0 km/h (0 Bft)
23.02.2016 09:00 22,8 C 1,4 C 50 % 96 % 1008,8 hPa 0,4 l/m 0,0 km/h (0 Bft) N 0,00 h 0,5 UV-I 90 W/m 0,8 C 1,4 C 0,0 km/h (0 Bft)
23.02.2016 10:00 23,0 C 1,7 C 50 % 96 % 1009,0 hPa 0,6 l/m 0,0 km/h (0 Bft) N 0,13 h 0,7 UV-I 113 W/m 1,1 C 1,7 C 0,1 km/h (0 Bft)
23.02.2016 11:00 22,9 C 2,2 C 50 % 95 % 1009,2 hPa 0,0 l/m 1,8 km/h (1 Bft) N 0,92 h 1,1 UV-I 186 W/m 1,5 C 2,2 C 4,8 km/h (1 Bft)
23.02.2016 12:00 22,9 C 2,8 C 50 % 94 % 1009,1 hPa 0,2 l/m 2,2 km/h (1 Bft) N 1,00 h 1,1 UV-I 199 W/m 2,0 C 2,8 C 4,9 km/h (1 Bft)
23.02.2016 13:00 23,0 C 2,7 C 49 % 93 % 1008,8 hPa 0,0 l/m 1,9 km/h (1 Bft) NW 0,28 h 0,8 UV-I 126 W/m 1,7 C 2,7 C 4,8 km/h (1 Bft)
23.02.2016 14:00 22,8 C 2,6 C 46 % 94 % 1008,7 hPa 0,2 l/m 2,1 km/h (1 Bft) N-NW 0,00 h 0,6 UV-I 104 W/m 1,7 C 2,5 C 5,0 km/h (1 Bft)
23.02.2016 15:00 22,9 C 2,5 C 46 % 93 % 1009,2 hPa 0,0 l/m 2,6 km/h (1 Bft) N-NW 0,00 h 0,5 UV-I 64 W/m 1,5 C 2,5 C 6,0 km/h (2 Bft)
23.02.2016 16:00 22,8 C 2,3 C 46 % 93 % 1010,0 hPa 0,0 l/m 2,2 km/h (1 Bft) NW 0,00 h 0,0 UV-I 49 W/m 1,3 C 2,3 C 5,6 km/h (1 Bft)
23.02.2016 17:00 22,7 C 2,0 C 45 % 93 % 1010,8 hPa 0,0 l/m 2,4 km/h (1 Bft) N-NW 0,00 h 0,0 UV-I 13 W/m 0,9 C 1,9 C 6,2 km/h (2 Bft)
23.02.2016 18:00 22,8 C 1,6 C 47 % 92 % 1011,9 hPa 0,0 l/m 2,1 km/h (1 Bft) NW 0,00 h 0,0 UV-I 0 W/m 0,5 C 1,6 C 4,8 km/h (1 Bft)
23.02.2016 19:00 22,9 C 1,2 C 48 % 92 % 1013,2 hPa 0,0 l/m 2,2 km/h (1 Bft) W 0,00 h 0,0 UV-I 0 W/m -0,0 C 1,2 C 6,1 km/h (2 Bft)
23.02.2016 20:00 23,1 C 0,6 C 48 % 91 % 1014,4 hPa 0,0 l/m 1,1 km/h (1 Bft) W 0,00 h 0,0 UV-I 0 W/m -0,6 C 0,6 C 3,6 km/h (1 Bft)
23.02.2016 21:00 23,3 C 0,8 C 48 % 93 % 1015,3 hPa 0,0 l/m 3,9 km/h (1 Bft) W 0,00 h 0,0 UV-I 0 W/m -0,2 C 0,6 C 8,6 km/h (2 Bft)
23.02.2016 22:00 23,1 C 0,8 C 48 % 94 % 1016,2 hPa 0,0 l/m 4,5 km/h (1 Bft) W 0,00 h 0,0 UV-I 0 W/m -0,1 C 0,4 C 9,5 km/h (2 Bft)
23.02.2016 23:00 22,8 C 0,8 C 49 % 92 % 1016,7 hPa 0,0 l/m 6,3 km/h (2 Bft) W 0,00 h 0,0 UV-I 0 W/m -0,3 C 0,1 C 12,4 km/h (3 Bft)
24.02.2016 00:00 22,7 C 0,8 C 49 % 92 % 1017,0 hPa 0,0 l/m 4,5 km/h (1 Bft) W-SW 0,00 h 0,0 UV-I 0 W/m -0,3 C 0,6 C 9,7 km/h (2 Bft)
24.02.2016 01:00 22,6 C 0,8 C 49 % 93 % 1017,0 hPa 0,0 l/m 3,5 km/h (1 Bft) W-SW 0,00 h 0,0 UV-I 0 W/m -0,3 C 0,6 C 8,3 km/h (2 Bft)
24.02.2016 02:00 22,5 C 0,8 C 50 % 94 % 1017,1 hPa 0,0 l/m 1,6 km/h (1 Bft) W-SW 0,00 h 0,0 UV-I 0 W/m -0,0 C 0,8 C 5,1 km/h (1 Bft)
24.02.2016 03:00 22,4 C 0,9 C 50 % 93 % 1017,3 hPa 0,0 l/m 3,3 km/h (1 Bft) W-SW 0,00 h 0,0 UV-I 0 W/m -0,2 C 0,7 C 7,6 km/h (2 Bft)
24.02.2016 04:00 22,4 C 0,8 C 50 % 92 % 1017,4 hPa 0,0 l/m 1,7 km/h (1 Bft) W-SW 0,00 h 0,0 UV-I 0 W/m -0,4 C 0,8 C 4,1 km/h (1 Bft)
24.02.2016 05:00 22,5 C 0,6 C 50 % 92 % 1017,6 hPa 0,0 l/m 0,9 km/h (0 Bft) W-SW 0,00 h 0,0 UV-I 0 W/m -0,5 C 0,6 C 3,2 km/h (1 Bft)
24.02.2016 06:00 22,7 C 0,7 C 50 % 91 % 1017,7 hPa 0,0 l/m 2,8 km/h (1 Bft) W-SW 0,00 h 0,0 UV-I 0 W/m -0,6 C 0,6 C 6,5 km/h (2 Bft)
24.02.2016 07:00 22,9 C 0,6 C 50 % 92 % 1018,1 hPa 0,0 l/m 1,5 km/h (1 Bft) SW 0,00 h 0,0 UV-I 8 W/m -0,5 C 0,6 C 4,2 km/h (1 Bft)
24.02.2016 08:00 23,4 C 0,6 C 50 % 94 % 1018,6 hPa 0,0 l/m 2,9 km/h (1 Bft) SW 0,00 h 0,0 UV-I 54 W/m -0,3 C 0,5 C 7,0 km/h (2 Bft)
24.02.2016 09:00 23,8 C 0,6 C 50 % 94 % 1018,8 hPa 0,2 l/m 1,1 km/h (1 Bft) W 0,00 h 0,0 UV-I 44 W/m -0,3 C 0,6 C 3,2 km/h (1 Bft)
24.02.2016 10:00 23,7 C 1,1 C 49 % 92 % 1018,9 hPa 0,0 l/m 1,6 km/h (1 Bft) W-SW 0,00 h 0,7 UV-I 90 W/m 0,0 C 1,1 C 3,6 km/h (1 Bft)
24.02.2016 11:00 23,7 C 1,4 C 49 % 90 % 1018,8 hPa 0,0 l/m 2,9 km/h (1 Bft) W-SW 0,00 h 0,6 UV-I 65 W/m -0,1 C 1,2 C 6,5 km/h (2 Bft)
24.02.2016 12:00 23,8 C 1,1 C 49 % 90 % 1018,5 hPa 0,0 l/m 1,8 km/h (1 Bft) W-SW 0,08 h 0,7 UV-I 100 W/m -0,3 C 1,1 C 4,6 km/h (1 Bft)
24.02.2016 13:00 23,7 C 2,1 C 48 % 84 % 1017,7 hPa 0,2 l/m 3,4 km/h (1 Bft) SW 1,00 h 1,1 UV-I 215 W/m -0,3 C 2,0 C 7,0 km/h (2 Bft)
24.02.2016 14:00 23,4 C 2,5 C 45 % 79 % 1017,1 hPa 0,0 l/m 2,9 km/h (1 Bft) W-SW 0,15 h 0,7 UV-I 118 W/m -0,9 C 2,4 C 6,7 km/h (2 Bft)
24.02.2016 15:00 23,0 C 2,6 C 41 % 78 % 1016,7 hPa 0,0 l/m 2,6 km/h (1 Bft) W-SW 0,25 h 0,6 UV-I 154 W/m -0,9 C 2,6 C 5,9 km/h (2 Bft)
24.02.2016 16:00 22,8 C 3,0 C 39 % 72 % 1016,3 hPa 0,0 l/m 3,0 km/h (1 Bft) SW 0,42 h 0,5 UV-I 157 W/m -1,5 C 3,0 C 6,4 km/h (2 Bft)
24.02.2016 17:00 22,9 C 2,1 C 40 % 78 % 1015,8 hPa 0,0 l/m 0,0 km/h (0 Bft) N 0,00 h 0,0 UV-I 13 W/m -1,2 C 2,1 C 0,0 km/h (0 Bft)
24.02.2016 18:00 23,1 C 0,9 C 40 % 84 % 1015,7 hPa 0,0 l/m 0,0 km/h (0 Bft) N 0,00 h 0,0 UV-I 0 W/m -1,6 C 0,9 C 0,0 km/h (0 Bft)
24.02.2016 19:00 23,2 C -0,5 C 42 % 89 % 1015,6 hPa 0,0 l/m 0,0 km/h (0 Bft) N 0,00 h 0,0 UV-I 0 W/m -2,1 C -0,5 C 0,0 km/h (0 Bft)
24.02.2016 20:00 23,3 C -1,1 C 43 % 92 % 1015,2 hPa 0,0 l/m 0,0 km/h (0 Bft) N 0,00 h 0,0 UV-I 0 W/m -2,2 C -1,1 C 0,0 km/h (0 Bft)
24.02.2016 21:00 23,5 C -1,6 C 43 % 93 % 1014,8 hPa 0,0 l/m 0,0 km/h (0 Bft) N 0,00 h 0,0 UV-I 0 W/m -2,7 C -1,6 C 0,0 km/h (0 Bft)
24.02.2016 22:00 23,3 C -2,2 C 43 % 93 % 1014,6 hPa 0,0 l/m 0,0 km/h (0 Bft) N 0,00 h 0,0 UV-I 0 W/m -3,2 C -2,2 C 0,0 km/h (0 Bft)
24.02.2016 23:00 22,9 C -2,6 C 44 % 93 % 1014,2 hPa 0,0 l/m 0,0 km/h (0 Bft) N 0,00 h 0,0 UV-I 0 W/m -3,6 C -2,6 C 0,0 km/h (0 Bft)
25.02.2016 00:00 22,8 C -3,0 C 44 % 93 % 1014,0 hPa 0,0 l/m 0,0 km/h (0 Bft) N 0,00 h 0,0 UV-I 0 W/m -3,9 C -3,0 C 0,0 km/h (0 Bft)
25.02.2016 01:00 22,7 C -3,2 C 45 % 94 % 1013,5 hPa 0,0 l/m 0,0 km/h (0 Bft) N 0,00 h 0,0 UV-I 0 W/m -4,0 C -3,2 C 0,0 km/h (0 Bft)
25.02.2016 02:00 22,6 C -3,1 C 45 % 94 % 1012,9 hPa 0,0 l/m 0,0 km/h (0 Bft) N 0,00 h 0,0 UV-I 0 W/m -3,9 C -3,1 C 0,0 km/h (0 Bft)
25.02.2016 03:00 22,6 C -2,9 C 45 % 95 % 1012,2 hPa 0,0 l/m 0,0 km/h (0 Bft) N 0,00 h 0,0 UV-I 0 W/m -3,6 C -2,9 C 0,0 km/h (0 Bft)
25.02.2016 04:00 22,7 C -2,8 C 46 % 95 % 1011,8 hPa 0,0 l/m 0,0 km/h (0 Bft) N 0,00 h 0,0 UV-I 0 W/m -3,5 C -2,8 C 0,0 km/h (0 Bft)
25.02.2016 05:00 22,7 C -2,6 C 45 % 95 % 1011,7 hPa 0,0 l/m 0,0 km/h (0 Bft) N 0,00 h 0,0 UV-I 0 W/m -3,3 C -2,6 C 0,0 km/h (0 Bft)
25.02.2016 06:00 23,0 C -2,4 C 46 % 95 % 1011,4 hPa 0,0 l/m 0,0 km/h (0 Bft) N 0,00 h 0,0 UV-I 0 W/m -3,1 C -2,4 C 0,0 km/h (0 Bft)
25.02.2016 07:00 23,3 C -2,7 C 46 % 95 % 1011,5 hPa 0,0 l/m 0,0 km/h (0 Bft) N 0,00 h 0,0 UV-I 21 W/m -3,4 C -2,7 C 0,0 km/h (0 Bft)
25.02.2016 08:00 23,7 C -2,4 C 46 % 95 % 1011,8 hPa 0,0 l/m 0,0 km/h (0 Bft) N 0,00 h 0,0 UV-I 48 W/m -3,1 C -2,4 C 0,0 km/h (0 Bft)
25.02.2016 09:00 23,6 C -1,8 C 46 % 94 % 1012,0 hPa 0,0 l/m 0,0 km/h (0 Bft) N 0,00 h 0,7 UV-I 89 W/m -2,6 C -1,8 C 0,0 km/h (0 Bft)
25.02.2016 10:00 23,5 C -0,6 C 45 % 92 % 1012,0 hPa 0,0 l/m 0,2 km/h (0 Bft) SW 0,92 h 1,3 UV-I 287 W/m -1,7 C -0,6 C 0,8 km/h (0 Bft)
25.02.2016 11:00 22,9 C 1,2 C 41 % 87 % 1012,0 hPa 0,0 l/m 0,1 km/h (0 Bft) S-SW 1,00 h 1,8 UV-I 402 W/m -0,7 C 1,2 C 0,2 km/h (0 Bft)
25.02.2016 12:00 23,3 C 2,8 C 43 % 73 % 1011,9 hPa 0,0 l/m 2,7 km/h (1 Bft) W-NW 0,48 h 1,3 UV-I 241 W/m -1,5 C 2,7 C 5,0 km/h (1 Bft)
25.02.2016 13:00 23,6 C 3,1 C 43 % 67 % 1012,0 hPa 0,0 l/m 2,9 km/h (1 Bft) W-NW 0,73 h 1,4 UV-I 285 W/m -2,3 C 3,1 C 5,5 km/h (1 Bft)
25.02.2016 14:00 23,8 C 2,9 C 43 % 65 % 1012,1 hPa 0,0 l/m 4,3 km/h (1 Bft) N-NW 0,08 h 0,9 UV-I 111 W/m -3,1 C 2,0 C 7,9 km/h (2 Bft)
25.02.2016 15:00 23,7 C 2,8 C 41 % 61 % 1012,3 hPa 0,0 l/m 6,5 km/h (2 Bft) W-NW 0,07 h 0,6 UV-I 100 W/m -4,0 C 1,2 C 10,4 km/h (2 Bft)
25.02.2016 16:00 23,7 C 2,8 C 42 % 66 % 1012,6 hPa 0,0 l/m 6,3 km/h (2 Bft) W-NW 0,37 h 0,5 UV-I 112 W/m -3,0 C 1,3 C 10,7 km/h (2 Bft)
25.02.2016 17:00 24,0 C 1,3 C 41 % 79 % 1013,0 hPa 0,0 l/m 0,4 km/h (0 Bft) NW 0,00 h 0,0 UV-I 23 W/m -1,9 C 1,2 C 0,6 km/h (0 Bft)
25.02.2016 18:00 24,2 C 0,2 C 42 % 82 % 1013,8 hPa 0,0 l/m 0,0 km/h (0 Bft) N 0,00 h 0,0 UV-I 0 W/m -2,5 C 0,2 C 0,0 km/h (0 Bft)
25.02.2016 19:00 24,1 C -0,9 C 43 % 86 % 1014,2 hPa 0,0 l/m 0,0 km/h (0 Bft) N 0,00 h 0,0 UV-I 0 W/m -3,0 C -0,9 C 0,0 km/h (0 Bft)
25.02.2016 20:00 24,1 C -1,8 C 45 % 88 % 1014,5 hPa 0,0 l/m 0,0 km/h (0 Bft) N 0,00 h 0,0 UV-I 0 W/m -3,5 C -1,8 C 0,0 km/h (0 Bft)
25.02.2016 21:00 23,9 C -2,3 C 45 % 90 % 1015,0 hPa 0,0 l/m 0,0 km/h (0 Bft) N 0,00 h 0,0 UV-I 0 W/m -3,7 C -2,3 C 0,0 km/h (0 Bft)
25.02.2016 22:00 23,5 C -2,7 C 45 % 91 % 1015,2 hPa 0,0 l/m 0,0 km/h (0 Bft) N 0,00 h 0,0 UV-I 0 W/m -4,0 C -2,7 C 0,0 km/h (0 Bft)
25.02.2016 23:00 23,3 C -3,4 C 45 % 91 % 1015,4 hPa 0,0 l/m 0,0 km/h (0 Bft) N 0,00 h 0,0 UV-I 0 W/m -4,6 C -3,4 C 0,0 km/h (0 Bft)
26.02.2016 00:00 23,2 C -3,7 C 46 % 93 % 1015,5 hPa 0,0 l/m 0,0 km/h (0 Bft) N 0,00 h 0,0 UV-I 0 W/m -4,7 C -3,7 C 0,0 km/h (0 Bft)
26.02.2016 01:00 23,1 C -4,1 C 46 % 93 % 1015,7 hPa 0,0 l/m 0,0 km/h (0 Bft) N 0,00 h 0,0 UV-I 0 W/m -5,1 C -4,1 C 0,0 km/h (0 Bft)
26.02.2016 02:00 22,9 C -4,4 C 46 % 93 % 1015,5 hPa 0,0 l/m 0,0 km/h (0 Bft) N 0,00 h 0,0 UV-I 0 W/m -5,4 C -4,4 C 0,0 km/h (0 Bft)
26.02.2016 03:00 22,9 C -4,6 C 47 % 93 % 1015,2 hPa 0,0 l/m 0,0 km/h (0 Bft) N 0,00 h 0,0 UV-I 0 W/m -5,6 C -4,6 C 0,0 km/h (0 Bft)
26.02.2016 04:00 23,1 C -5,1 C 48 % 92 % 1015,3 hPa 0,0 l/m 0,0 km/h (0 Bft) N 0,00 h 0,0 UV-I 0 W/m -6,1 C -5,1 C 0,0 km/h (0 Bft)
26.02.2016 05:00 23,1 C -5,6 C 47 % 92 % 1015,3 hPa 0,0 l/m 0,0 km/h (0 Bft) N 0,00 h 0,0 UV-I 0 W/m -6,6 C -5,6 C 0,0 km/h (0 Bft)
26.02.2016 06:00 23,3 C -5,8 C 47 % 93 % 1015,4 hPa 0,0 l/m 0,0 km/h (0 Bft) N 0,00 h 0,0 UV-I 0 W/m -6,8 C -5,8 C 0,0 km/h (0 Bft)
26.02.2016 07:00 23,3 C -5,1 C 48 % 94 % 1015,6 hPa 0,0 l/m 0,0 km/h (0 Bft) N 0,00 h 0,0 UV-I 27 W/m -6,0 C -5,1 C 0,0 km/h (0 Bft)
26.02.2016 08:00 23,3 C -3,2 C 48 % 94 % 1015,9 hPa 0,0 l/m 0,0 km/h (0 Bft) N 0,43 h 0,6 UV-I 136 W/m -4,0 C -3,2 C 0,0 km/h (0 Bft)
26.02.2016 09:00 23,4 C -0,8 C 48 % 89 % 1015,8 hPa 0,0 l/m 0,0 km/h (0 Bft) N 1,00 h 0,9 UV-I 302 W/m -2,4 C -0,8 C 0,0 km/h (0 Bft)
26.02.2016 10:00 23,4 C 0,8 C 43 % 84 % 1015,5 hPa 0,0 l/m 0,0 km/h (0 Bft) N 0,98 h 1,4 UV-I 447 W/m -1,5 C 0,8 C 0,0 km/h (0 Bft)
26.02.2016 11:00 23,7 C 1,5 C 41 % 77 % 1015,4 hPa 0,0 l/m 0,3 km/h (0 Bft) S 0,92 h 1,6 UV-I 388 W/m -2,1 C 1,5 C 0,8 km/h (0 Bft)
26.02.2016 12:00 23,7 C 1,1 C 40 % 72 % 1014,9 hPa 0,0 l/m 0,1 km/h (0 Bft) S 0,20 h 1,5 UV-I 174 W/m -3,3 C 1,1 C 0,6 km/h (0 Bft)
26.02.2016 13:00 23,5 C 1,9 C 39 % 68 % 1014,2 hPa 0,0 l/m 0,3 km/h (0 Bft) S-SW 0,22 h 1,3 UV-I 141 W/m -3,4 C 1,9 C 0,9 km/h (0 Bft)
26.02.2016 14:00 23,3 C 1,9 C 38 % 66 % 1013,9 hPa 0,0 l/m 0,1 km/h (0 Bft) W 0,00 h 0,7 UV-I 115 W/m -3,9 C 1,9 C 0,2 km/h (0 Bft)
26.02.2016 15:00 23,4 C 2,1 C 38 % 64 % 1013,4 hPa 0,0 l/m 0,0 km/h (0 Bft) N 0,00 h 0,5 UV-I 83 W/m -3,9 C 2,1 C 0,0 km/h (0 Bft)
26.02.2016 16:00 23,8 C 2,7 C 39 % 61 % 1013,0 hPa 0,0 l/m 0,4 km/h (0 Bft) N 0,22 h 0,0 UV-I 114 W/m -4,0 C 2,7 C 1,4 km/h (1 Bft)
26.02.2016 17:00 23,8 C 2,0 C 40 % 63 % 1012,5 hPa 0,0 l/m 0,0 km/h (0 Bft) N 0,00 h 0,0 UV-I 15 W/m -4,4 C 2,0 C 0,0 km/h (0 Bft)
26.02.2016 18:00 24,1 C 0,6 C 40 % 70 % 1012,4 hPa 0,0 l/m 0,0 km/h (0 Bft) N 0,00 h 0,0 UV-I 0 W/m -4,1 C 0,6 C 0,0 km/h (0 Bft)
26.02.2016 19:00 23,7 C -0,4 C 40 % 77 % 1012,3 hPa 0,0 l/m 0,0 km/h (0 Bft) N 0,00 h 0,0 UV-I 0 W/m -3,9 C -0,4 C 0,0 km/h (0 Bft)
26.02.2016 20:00 23,5 C -1,1 C 40 % 79 % 1012,1 hPa 0,0 l/m 0,0 km/h (0 Bft) N 0,00 h 0,0 UV-I 0 W/m -4,2 C -1,1 C 0,0 km/h (0 Bft)
26.02.2016 21:00 23,5 C -1,4 C 39 % 82 % 1012,0 hPa 0,0 l/m 0,2 km/h (0 Bft) O-NO 0,00 h 0,0 UV-I 0 W/m -4,1 C -1,4 C 0,7 km/h (0 Bft)
26.02.2016 22:00 23,7 C -1,7 C 41 % 84 % 1011,9 hPa 0,0 l/m 0,4 km/h (0 Bft) O-NO 0,00 h 0,0 UV-I 0 W/m -4,1 C -1,7 C 2,2 km/h (1 Bft)
26.02.2016 23:00 23,3 C -1,7 C 41 % 83 % 1011,7 hPa 0,0 l/m 2,1 km/h (1 Bft) O-NO 0,00 h 0,0 UV-I 0 W/m -4,2 C -1,8 C 6,0 km/h (2 Bft)
27.02.2016 00:00 23,1 C -1,6 C 41 % 81 % 1011,3 hPa 0,0 l/m 2,5 km/h (1 Bft) O-NO 0,00 h 0,0 UV-I 0 W/m -4,4 C -1,7 C 6,5 km/h (2 Bft)
27.02.2016 01:00 22,9 C -1,8 C 41 % 81 % 1011,0 hPa 0,0 l/m 1,3 km/h (1 Bft) O 0,00 h 0,0 UV-I 0 W/m -4,6 C -1,8 C 3,9 km/h (1 Bft)
27.02.2016 02:00 22,7 C -1,9 C 42 % 80 % 1010,6 hPa 0,0 l/m 2,2 km/h (1 Bft) O-NO 0,00 h 0,0 UV-I 0 W/m -4,9 C -2,1 C 5,9 km/h (2 Bft)
27.02.2016 03:00 22,7 C -1,6 C 42 % 78 % 1010,0 hPa 0,0 l/m 4,0 km/h (1 Bft) O-NO 0,00 h 0,0 UV-I 0 W/m -5,0 C -2,0 C 9,5 km/h (2 Bft)
27.02.2016 04:00 22,7 C -2,0 C 43 % 79 % 1009,3 hPa 0,0 l/m 4,5 km/h (1 Bft) O-NO 0,00 h 0,0 UV-I 0 W/m -5,2 C -2,4 C 9,8 km/h (2 Bft)
27.02.2016 05:00 22,7 C -1,9 C 43 % 78 % 1008,9 hPa 0,0 l/m 5,1 km/h (1 Bft) O 0,00 h 0,0 UV-I 0 W/m -5,3 C -2,7 C 11,3 km/h (2 Bft)
27.02.2016 06:00 22,6 C -1,9 C 43 % 77 % 1008,8 hPa 0,0 l/m 4,0 km/h (1 Bft) O 0,00 h 0,0 UV-I 0 W/m -5,3 C -2,2 C 9,0 km/h (2 Bft)
27.02.2016 07:00 22,6 C -1,8 C 44 % 78 % 1009,0 hPa 0,0 l/m 5,5 km/h (1 Bft) O 0,00 h 0,0 UV-I 29 W/m -5,2 C -2,6 C 10,8 km/h (2 Bft)
27.02.2016 08:00 22,6 C -1,2 C 44 % 77 % 1009,4 hPa 0,0 l/m 4,5 km/h (1 Bft) O 0,03 h 0,5 UV-I 112 W/m -4,7 C -1,9 C 9,1 km/h (2 Bft)
27.02.2016 09:00 22,6 C -0,6 C 44 % 76 % 1009,3 hPa 0,0 l/m 5,7 km/h (1 Bft) O-SO 0,87 h 0,8 UV-I 177 W/m -4,2 C -1,7 C 11,8 km/h (2 Bft)
27.02.2016 10:00 23,0 C 0,3 C 43 % 75 % 1009,4 hPa 0,0 l/m 6,7 km/h (2 Bft) O-SO 1,00 h 1,2 UV-I 284 W/m -3,6 C -1,0 C 14,4 km/h (3 Bft)
27.02.2016 11:00 22,8 C 2,0 C 40 % 72 % 1009,4 hPa 0,0 l/m 4,8 km/h (1 Bft) O-NO 1,00 h 1,7 UV-I 383 W/m -2,6 C 1,1 C 10,8 km/h (2 Bft)
27.02.2016 12:00 22,7 C 3,1 C 38 % 69 % 1009,2 hPa 0,0 l/m 4,1 km/h (1 Bft) O 1,00 h 1,8 UV-I 418 W/m -2,1 C 2,7 C 9,3 km/h (2 Bft)
27.02.2016 13:00 22,7 C 3,6 C 36 % 67 % 1009,2 hPa 0,0 l/m 5,1 km/h (1 Bft) O 1,00 h 1,7 UV-I 412 W/m -1,9 C 3,0 C 10,5 km/h (2 Bft)
27.02.2016 14:00 22,7 C 3,8 C 36 % 67 % 1009,1 hPa 0,0 l/m 5,6 km/h (1 Bft) O-NO 1,00 h 1,3 UV-I 347 W/m -1,7 C 2,7 C 10,9 km/h (2 Bft)
27.02.2016 15:00 22,8 C 4,0 C 36 % 67 % 1009,3 hPa 0,0 l/m 5,1 km/h (1 Bft) O-NO 1,00 h 0,8 UV-I 268 W/m -1,6 C 3,3 C 11,0 km/h (2 Bft)
27.02.2016 16:00 22,8 C 3,5 C 37 % 68 % 1009,2 hPa 0,0 l/m 4,4 km/h (1 Bft) NO 0,38 h 0,5 UV-I 130 W/m -1,9 C 3,0 C 10,2 km/h (2 Bft)
27.02.2016 17:00 22,9 C 2,4 C 38 % 72 % 1009,4 hPa 0,0 l/m 3,5 km/h (1 Bft) O-NO 0,00 h 0,0 UV-I 21 W/m -2,1 C 2,1 C 7,2 km/h (2 Bft)
27.02.2016 18:00 22,9 C 1,2 C 38 % 77 % 1009,9 hPa 0,0 l/m 2,2 km/h (1 Bft) O-NO 0,00 h 0,0 UV-I 0 W/m -2,4 C 1,2 C 5,0 km/h (1 Bft)
27.02.2016 19:00 23,1 C 0,4 C 42 % 80 % 1010,4 hPa 0,0 l/m 1,4 km/h (1 Bft) O 0,00 h 0,0 UV-I 0 W/m -2,6 C 0,4 C 3,4 km/h (1 Bft)
27.02.2016 20:00 22,9 C 0,1 C 41 % 81 % 1010,3 hPa 0,0 l/m 1,3 km/h (1 Bft) O 0,00 h 0,0 UV-I 0 W/m -2,7 C 0,1 C 4,2 km/h (1 Bft)
27.02.2016 21:00 23,1 C -0,1 C 42 % 82 % 1010,6 hPa 0,0 l/m 2,1 km/h (1 Bft) O-NO 0,00 h 0,0 UV-I 0 W/m -2,8 C -0,2 C 5,4 km/h (1 Bft)
27.02.2016 22:00 23,1 C -0,3 C 42 % 83 % 1010,7 hPa 0,0 l/m 3,3 km/h (1 Bft) O-NO 0,00 h 0,0 UV-I 0 W/m -2,9 C -0,4 C 7,8 km/h (2 Bft)
27.02.2016 23:00 22,8 C -0,6 C 42 % 84 % 1010,8 hPa 0,0 l/m 3,9 km/h (1 Bft) O-NO 0,00 h 0,0 UV-I 0 W/m -3,0 C -0,8 C 8,3 km/h (2 Bft)
28.02.2016 00:00 22,6 C -1,0 C 42 % 85 % 1010,8 hPa 0,0 l/m 3,5 km/h (1 Bft) N 0,00 h 0,0 UV-I 0 W/m -3,3 C -1,1 C 7,5 km/h (2 Bft)
28.02.2016 01:00 22,5 C -1,9 C 43 % 86 % 1011,0 hPa 0,0 l/m 1,7 km/h (1 Bft) N 0,00 h 0,0 UV-I 0 W/m -3,9 C -1,9 C 3,1 km/h (1 Bft)
28.02.2016 02:00 22,4 C -2,5 C 43 % 88 % 1011,2 hPa 0,0 l/m 4,3 km/h (1 Bft) N 0,00 h 0,0 UV-I 0 W/m -4,2 C -2,8 C 7,1 km/h (2 Bft)
28.02.2016 03:00 22,4 C -2,7 C 44 % 90 % 1011,4 hPa 0,0 l/m 5,5 km/h (1 Bft) N 0,00 h 0,0 UV-I 0 W/m -4,0 C -3,0 C 8,8 km/h (2 Bft)
28.02.2016 04:00 22,5 C -2,8 C 44 % 91 % 1011,7 hPa 0,0 l/m 3,8 km/h (1 Bft) N 0,00 h 0,0 UV-I 0 W/m -4,0 C -3,3 C 6,0 km/h (2 Bft)
28.02.2016 05:00 22,4 C -2,8 C 44 % 92 % 1012,2 hPa 0,0 l/m 1,9 km/h (1 Bft) N 0,00 h 0,0 UV-I 0 W/m -3,9 C -2,9 C 3,7 km/h (1 Bft)
28.02.2016 06:00 22,4 C -2,7 C 45 % 92 % 1012,2 hPa 0,0 l/m 5,2 km/h (1 Bft) N 0,00 h 0,0 UV-I 0 W/m -3,8 C -3,4 C 8,3 km/h (2 Bft)
28.02.2016 07:00 22,4 C -2,9 C 45 % 92 % 1012,5 hPa 0,0 l/m 5,1 km/h (1 Bft) N 0,00 h 0,0 UV-I 27 W/m -4,0 C -3,7 C 8,1 km/h (2 Bft)
28.02.2016 08:00 22,4 C -1,4 C 45 % 93 % 1013,1 hPa 0,0 l/m 4,7 km/h (1 Bft) O-NO 0,00 h 0,5 UV-I 100 W/m -2,4 C -2,6 C 9,4 km/h (2 Bft)
28.02.2016 09:00 22,7 C 0,1 C 45 % 90 % 1013,4 hPa 0,0 l/m 9,4 km/h (2 Bft) O-NO 0,00 h 0,6 UV-I 94 W/m -1,4 C -3,0 C 17,4 km/h (3 Bft)
28.02.2016 10:00 23,0 C 0,7 C 47 % 89 % 1013,6 hPa 0,0 l/m 8,7 km/h (2 Bft) O-NO 0,00 h 0,8 UV-I 118 W/m -0,9 C -1,8 C 15,2 km/h (3 Bft)
28.02.2016 11:00 23,0 C 1,3 C 48 % 88 % 1013,8 hPa 0,0 l/m 10,4 km/h (2 Bft) O-NO 0,00 h 0,8 UV-I 99 W/m -0,5 C -2,2 C 17,6 km/h (3 Bft)
28.02.2016 12:00 22,6 C 1,9 C 43 % 87 % 1013,6 hPa 0,0 l/m 10,5 km/h (2 Bft) O-NO 0,00 h 0,9 UV-I 108 W/m -0,1 C -1,6 C 18,0 km/h (3 Bft)
28.02.2016 13:00 22,5 C 2,3 C 42 % 84 % 1013,6 hPa 0,0 l/m 10,9 km/h (2 Bft) O-NO 0,22 h 0,9 UV-I 127 W/m -0,2 C -1,7 C 18,7 km/h (3 Bft)
28.02.2016 14:00 22,7 C 2,8 C 44 % 81 % 1013,8 hPa 0,0 l/m 7,6 km/h (2 Bft) O-NO 0,28 h 0,9 UV-I 138 W/m -0,0 C 1,0 C 13,5 km/h (3 Bft)
28.02.2016 15:00 22,8 C 3,1 C 44 % 80 % 1014,5 hPa 0,0 l/m 4,7 km/h (1 Bft) O-NO 0,00 h 0,5 UV-I 71 W/m -0,1 C 2,4 C 9,4 km/h (2 Bft)
28.02.2016 16:00 22,8 C 3,1 C 44 % 80 % 1015,2 hPa 0,0 l/m 4,6 km/h (1 Bft) O-NO 0,00 h 0,0 UV-I 24 W/m -0,0 C 2,3 C 9,8 km/h (2 Bft)
28.02.2016 17:00 22,8 C 2,9 C 45 % 82 % 1015,2 hPa 0,0 l/m 2,5 km/h (1 Bft) O-NO 0,00 h 0,0 UV-I 6 W/m 0,1 C 2,6 C 6,2 km/h (2 Bft)
28.02.2016 18:00 23,1 C 2,9 C 46 % 83 % 1015,6 hPa 0,0 l/m 4,6 km/h (1 Bft) N 0,00 h 0,0 UV-I 0 W/m 0,4 C 2,5 C 9,9 km/h (2 Bft)
28.02.2016 19:00 23,0 C 2,9 C 45 % 83 % 1016,2 hPa 0,0 l/m 5,9 km/h (2 Bft) N 0,00 h 0,0 UV-I 0 W/m 0,3 C 2,2 C 10,0 km/h (2 Bft)
28.02.2016 20:00 22,9 C 2,7 C 45 % 83 % 1015,9 hPa 0,0 l/m 5,9 km/h (2 Bft) N 0,00 h 0,0 UV-I 0 W/m 0,1 C 2,0 C 10,4 km/h (2 Bft)
28.02.2016 21:00 23,2 C 2,9 C 46 % 82 % 1015,7 hPa 0,0 l/m 6,9 km/h (2 Bft) N 0,00 h 0,0 UV-I 0 W/m 0,1 C 1,8 C 12,7 km/h (3 Bft)
28.02.2016 22:00 23,0 C 2,8 C 46 % 83 % 1015,7 hPa 0,0 l/m 8,3 km/h (2 Bft) N 0,00 h 0,0 UV-I 0 W/m 0,2 C 0,9 C 12,7 km/h (3 Bft)
28.02.2016 23:00 22,7 C 2,3 C 46 % 86 % 1015,9 hPa 0,0 l/m 7,4 km/h (2 Bft) N 0,00 h 0,0 UV-I 0 W/m 0,2 C 0,9 C 12,1 km/h (2 Bft)
Min-Datum _ 23.02.16 26.02.16 27.02.16 25.02.16 23.02.16 - 22.02.16 - - - - 26.02.16 27.02.16 22.02.16
_ Min-Zeit 05:08 06:32 15:45 13:59 01:14 - 21:03 - - - - 06:32 05:45 04:35
Minimum _ 22,3 C -5,9 C 32 % 57 % 1006,4 hPa - 0,0 km/h (0 Bft) - - - - -7,0 C -9,8 C 0,0 km/h (0 Bft)
Max-Datum _ 25.02.16 22.02.16 22.02.16 23.02.16 24.02.16 23.02.16 22.02.16 - 23.02.16 25.02.16 25.02.16 22.02.16 22.02.16 22.02.16
_ Max-Zeit 18:15 15:57 09:02 09:10 09:47 03:02 00:59 - 12:30 12:00 12:05 00:01 15:39 13:27
Maximum _ 24,3 C 9,7 C 51 % 96 % 1019,0 hPa 2,4 l/m 32,2 km/h
W-SW (5 Bft)
- 0,03 h 2,3 UV-I 652 W/m 7,7 C 9,6 C 49,9 km/h
W-SW (6 Bft)
Durchschnitt _ 23,0 C 1,5 C 45 % 84 % 1012,3 hPa #8,4 l/m 4,6 km/h (1 Bft) W-SW #19:38 h 0,9 UV-I 125 W/m -0,9 C 0,4 C 8,3 km/h (2 Bft)